SB KEPS @ AMSAT $ORB15149.N
2Line Orbital Elements 15149.AMSAT
HR AMSAT ORBITAL ELEMENTS FOR AMATEUR SATELLITES IN NASA FORMAT
FROM WA5QGD FORT WORTH,TX May 29, 2015
BID: ORB15149.N
DECODE 2-LINE ELSETS WITH THE FOLLOWING KEY:
1 AAAAAU 00 0 0 BBBBB.BBBBBBBB .CCCCCCCC 00000-0 00000-0 0 DDDZ
2 AAAAA EEE.EEEE FFF.FFFF GGGGGGG HHH.HHHH III.IIII JJ.JJJJJJJJKKKKKZ
KEY: A-CATALOGNUM B-EPOCHTIME C-DECAY D-ELSETNUM E-INCLINATION F-RAAN
G-ECCENTRICITY H-ARGPERIGEE I-MNANOM J-MNMOTION K-ORBITNUM Z-CHECKSUM
TO ALL RADIO AMATEURS BT
AO-07
1 07530U 74089B 15148.92547000 -.00000026 00000-0 11020-3 0 9995
2 07530 101.5187 125.0034 0011901 343.2351 072.5056 12.53614536854848
FO-29
1 24278U 96046B 15148.56699382 .00000017 00000-0 50458-4 0 9999
2 24278 098.5386 120.0159 0351290 121.5857 354.4115 13.53052150927377
SO-33
1 25509U 98061B 15147.97521917 .00000280 00000-0 40505-4 0 9992
2 25509 031.4354 006.1279 0348112 256.1940 099.9719 14.30003637866522
RS-22
1 27939U 03042A 15148.96724243 .00000280 00000-0 59326-4 0 9994
2 27939 097.8414 311.7183 0014360 088.7956 271.4888 14.66040392623370
HO-68
1 36122U 09072B 15148.63389319 -.00000060 00000-0 -43517-4 0 9995
2 36122 100.1954 194.1359 0007722 159.3577 200.7852 13.16327126261884
AO-73
1 39444U 13066AE 15148.96376862 .00001173 00000-0 15669-3 0 9998
2 39444 097.7320 212.4264 0059657 197.0264 162.8948 14.80173928 80577
EO-79
1 40025U 14033R 15147.62691749 .00001273 00000-0 14796-3 0 9997
2 40025 097.9537 047.8620 0011539 251.9615 108.0306 14.87096373 50740
UO-11
1 14781U 84021B 15148.12146606 .00000406 00000-0 57200-4 0 9999
2 14781 097.8033 205.6961 0009766 130.8005 229.4057 14.82386558679053
AO-16
1 20439U 90005D 15147.80794545 .00000060 00000-0 38018-4 0 9992
2 20439 098.5396 084.3031 0010020 216.1651 169.7309 14.32542579323829
LO-19
1 20442U 90005G 15147.39230864 .00000056 00000-0 36474-4 0 9998
2 20442 098.5106 083.5136 0011167 204.9515 155.1130 14.32735270323964
AO-27
1 22825U 93061C 15148.95847317 .00000061 00000-0 41001-4 0 9998
2 22825 098.7072 099.0638 0008686 013.0865 030.8150 14.29880673130199
IO-26
1 22826U 93061D 15148.52107886 .00000049 00000-0 36276-4 0 9996
2 22826 098.7014 098.7962 0009074 006.0354 354.0936 14.30197273130270
